Theta_e
341 342 343 342 342 348 351 355 355 350 349 342 343 346 346 351 351 352 351 350 348 346 345 342 340 340 345 345 345 346 345 347 344 339 338 344 347 347 348 347 346 346 346 346 346 346 345 346 348 347 347 350 349 349 351 350 349 351 351 349 350 352 351 351 352 351 351 350 348 345 342 342 342 345 349 352 352 351 351 350 351 351 352 352 351 350 351 351 351 351 352 352 351 351 352 351 350
338 342 347 347 347 353 356 357 354 345 342 338 343 348 347 353 352 352 352 350 348 345 342 340 341 345 347 346 344 345 346 345 344 343 344 346 347 347 348 348 349 349 348 347 347 348 347 348 349 349 348 350 350 349 351 349 348 350 350 349 352 353 351 352 352 351 351 350 349 347 345 343 344 348 351 352 351 351 351 351 352 351 351 351 351 351 352 351 351 352 352 351 351 351 351 351 350
341 345 348 349 351 355 358 358 351 340 337 336 340 349 351 353 353 352 351 350 346 342 341 341 344 346 345 346 347 347 347 344 343 343 344 347 348 348 348 348 350 350 350 349 348 348 348 348 349 350 350 351 351 351 352 350 350 351 352 351 352 352 351 351 350 350 351 351 350 348 346 346 347 349 351 351 351 351 350 351 352 351 351 351 350 350 351 350 350 352 351 351 351 351 352 351 349
345 349 348 351 355 357 364 363 352 340 335 336 338 348 354 353 353 351 351 349 345 342 342 344 346 346 345 348 347 346 347 344 344 344 345 347 348 348 348 350 350 350 350 349 348 347 348 347 348 349 350 352 351 352 353 352 352 352 351 350 350 349 351 350 347 349 350 350 350 348 347 348 349 350 351 351 352 352 350 350 351 352 351 350 349 349 349 349 349 351 352 352 352 351 351 350 349
349 352 350 354 360 359 366 362 352 343 337 339 339 348 355 352 353 351 350 347 344 343 343 346 347 346 346 347 346 346 346 344 345 346 346 347 348 349 349 350 350 351 351 349 347 348 348 346 346 348 349 350 350 351 352 352 352 352 350 349 350 350 350 349 347 348 349 349 351 350 348 349 349 349 351 351 352 352 350 351 351 352 352 350 349 349 349 348 349 350 351 351 352 352 351 350 349
352 354 352 356 359 359 364 355 345 343 345 348 345 351 354 350 354 351 349 346 344 343 345 348 346 346 346 345 346 345 345 344 346 346 347 348 349 349 350 350 350 351 350 347 347 349 348 347 348 348 349 349 349 350 352 351 350 351 350 348 350 351 351 349 347 348 348 349 350 350 350 350 349 348 350 350 351 352 351 351 351 352 352 350 350 350 348 348 349 349 350 351 351 352 351 351 349
353 356 356 358 360 362 364 352 345 347 350 353 351 353 353 351 353 351 349 347 345 344 346 347 344 347 348 345 346 346 346 346 346 347 348 349 349 349 349 350 350 350 348 345 346 348 349 348 349 350 349 348 349 351 351 349 348 350 350 350 351 351 351 350 348 348 348 348 349 350 350 351 350 349 350 350 350 351 352 351 351 351 351 350 349 349 348 348 349 348 350 352 352 351 351 351 349
352 356 357 359 365 366 358 351 352 354 353 352 352 353 352 352 352 351 351 348 347 345 346 345 343 349 349 345 347 348 348 348 348 348 349 349 349 349 349 348 349 349 348 347 347 349 350 349 350 350 350 349 351 350 349 348 348 350 351 350 351 351 351 350 349 349 348 348 348 349 350 350 350 351 350 349 350 351 352 352 351 351 350 349 348 348 348 349 348 348 350 352 352 351 350 350 350
353 356 356 360 363 359 352 352 355 356 355 352 351 352 351 351 351 352 350 349 347 346 347 344 343 349 349 347 348 348 349 349 349 349 349 349 349 348 346 346 349 350 350 350 349 350 350 350 350 350 350 350 350 349 347 347 347 349 350 349 350 351 350 349 350 349 348 348 348 350 350 350 350 351 351 349 348 350 351 351 350 350 349 348 348 348 348 349 348 350 352 352 352 351 350 349 350
354 355 358 361 359 351 349 352 352 355 356 352 352 352 351 350 350 352 351 351 348 347 348 344 344 347 348 348 348 348 348 349 349 349 348 349 349 347 345 345 349 350 350 351 350 351 350 350 350 350 351 349 350 349 347 346 347 349 349 348 348 350 349 348 350 349 349 348 348 350 350 349 351 351 352 351 347 349 350 350 350 350 349 348 349 348 348 349 350 351 351 352 352 351 350 349 349
356 355 357 358 353 346 347 350 353 355 355 352 351 351 350 350 350 351 352 351 349 348 346 345 347 347 347 348 348 348 349 348 348 348 348 349 348 346 346 347 349 350 351 351 350 351 350 350 351 350 350 349 349 349 347 348 348 349 349 348 348 349 348 348 350 349 349 349 349 350 349 349 351 351 352 352 350 349 349 349 350 350 351 350 349 348 348 350 351 352 351 351 351 350 349 349 347
357 356 359 358 352 350 350 352 354 355 354 352 351 351 350 350 352 351 351 351 349 348 345 346 347 345 348 348 348 349 348 348 348 348 348 348 347 347 349 349 349 350 350 350 350 350 350 350 350 349 350 350 349 349 349 349 350 350 349 347 347 348 348 349 350 349 350 349 350 350 349 349 351 352 352 351 352 350 349 350 349 350 351 349 349 349 350 351 351 351 351 350 351 350 349 349 348
356 357 360 358 357 360 357 354 356 354 353 352 352 351 349 350 353 352 351 350 348 348 346 345 345 345 348 348 347 347 348 349 349 349 349 348 348 349 350 350 350 351 350 349 349 350 349 349 349 349 349 350 349 349 349 350 350 349 348 346 346 348 347 348 350 349 349 349 350 351 350 351 350 351 352 351 352 351 350 350 350 350 350 350 350 351 350 350 349 351 351 350 350 349 348 348 348
354 355 358 359 360 363 360 354 353 351 350 352 352 350 350 350 351 350 350 350 350 349 346 345 344 346 348 347 346 345 347 350 349 349 349 350 350 350 350 350 350 351 350 349 349 349 349 349 349 349 349 349 349 349 350 350 349 348 347 347 347 347 348 348 349 349 349 349 349 350 351 350 348 348 350 351 351 351 351 350 350 351 350 350 351 349 348 347 348 350 350 350 350 349 348 348 348
354 353 356 360 357 356 357 354 352 349 349 353 352 350 350 349 348 349 349 351 350 346 345 346 344 345 346 347 346 345 349 350 350 350 350 350 351 351 350 350 350 351 350 349 350 349 349 348 348 349 349 349 348 349 349 349 349 348 347 347 347 349 349 349 349 348 349 350 349 349 349 349 348 348 349 350 350 351 352 351 351 351 350 350 349 348 347 345 344 346 347 348 349 349 348 348 348
353 353 357 358 353 351 354 356 352 349 351 354 351 349 351 349 347 349 349 349 348 345 345 346 344 345 344 345 345 347 350 350 350 350 350 351 351 351 350 350 350 350 350 350 349 349 349 348 348 348 348 349 348 348 349 349 348 348 346 347 348 349 349 349 349 349 349 350 350 349 348 348 349 349 349 349 349 350 351 351 351 350 349 349 348 346 344 343 342 342 343 345 346 347 348 348 348
351 354 358 355 352 352 354 357 352 350 355 355 351 350 352 350 348 348 347 347 347 346 347 346 345 345 344 345 348 350 351 350 351 351 351 351 350 350 349 349 350 350 350 349 349 349 349 348 348 348 348 348 349 349 349 348 348 347 347 347 348 348 348 348 349 349 349 350 350 349 348 349 349 349 349 349 350 350 351 352 350 349 348 347 346 344 343 343 342 340 341 344 345 346 346 347 347
353 358 358 351 352 355 357 360 356 356 357 353 351 351 352 351 350 348 347 349 348 348 347 347 347 347 349 350 350 352 351 351 351 351 350 350 350 349 348 349 349 350 350 350 349 349 348 348 348 348 348 348 348 348 348 348 348 347 347 347 347 347 347 347 348 348 348 349 349 348 349 350 350 349 349 349 349 349 351 351 349 348 347 345 343 342 341 339 338 339 340 343 344 344 345 345 345
355 359 358 353 357 358 358 360 360 360 356 352 351 350 352 352 350 348 350 351 349 349 349 349 349 349 350 351 351 351 351 351 351 350 350 349 348 348 348 348 349 349 350 349 349 348 348 347 347 348 348 348 348 348 349 349 348 347 347 347 346 347 347 347 347 347 347 348 348 348 348 349 348 348 349 349 349 349 350 350 349 348 344 340 339 338 336 334 336 338 340 343 343 343 343 344 346
355 357 359 358 358 357 358 359 362 362 355 352 351 350 352 351 348 348 351 351 350 351 350 349 351 349 348 350 352 351 351 351 351 350 350 349 348 348 348 348 348 349 349 349 349 348 348 348 348 348 348 348 348 348 349 348 348 348 348 347 346 346 347 347 347 347 347 347 348 347 347 347 346 347 348 348 349 349 349 348 346 344 339 336 335 333 333 333 336 339 341 343 343 343 344 345 346
356 356 359 358 356 357 359 358 361 361 355 352 350 350 351 349 347 348 351 351 351 351 348 349 351 349 348 348 351 352 351 351 351 350 349 349 349 349 349 348 349 349 349 349 349 349 348 348 348 348 348 348 348 348 348 348 348 349 348 347 346 346 347 346 346 346 346 346 347 346 346 346 346 347 348 348 348 347 345 343 341 338 335 334 333 332 333 334 337 340 342 343 343 344 345 346 346
357 357 358 357 355 358 360 357 360 359 354 352 351 351 350 348 348 349 351 351 351 349 347 347 349 349 349 349 351 352 351 351 351 350 350 350 349 349 350 349 349 349 349 350 349 349 348 348 348 348 348 348 348 348 348 348 349 349 349 349 348 347 347 346 345 346 346 347 347 346 346 346 347 347 347 346 346 345 343 340 338 336 335 334 333 334 335 336 340 342 342 343 343 345 346 345 344
356 358 357 357 355 358 359 358 360 356 354 354 352 351 349 349 350 350 349 348 348 347 345 347 349 350 351 351 351 350 350 351 351 350 350 350 350 349 350 350 349 349 350 350 349 349 348 348 349 348 348 348 348 348 348 348 349 350 349 349 349 349 349 348 347 347 348 348 347 347 347 348 348 347 346 344 343 343 341 339 338 337 339 339 336 338 339 338 341 341 340 341 342 345 348 346 344
355 357 357 357 356 357 356 357 358 356 357 358 354 351 351 350 351 348 347 346 347 346 347 349 351 352 353 352 351 350 351 352 351 350 350 349 349 349 350 350 350 350 350 349 349 349 349 348 349 348 348 348 349 349 348 348 348 349 349 349 350 349 348 348 348 348 348 347 347 347 347 348 349 348 345 343 341 341 340 338 340 343 345 345 341 343 344 343 343 342 341 343 345 346 349 348 346
356 357 357 356 355 356 354 355 356 356 357 356 353 353 354 352 349 348 347 347 346 347 348 349 350 351 352 350 350 352 353 352 351 350 350 350 350 350 351 350 350 351 350 350 349 349 349 348 348 348 349 348 349 349 348 348 348 348 348 349 349 347 347 348 347 348 347 347 347 346 346 347 348 347 344 341 340 340 340 341 345 348 348 347 347 348 346 345 346 346 346 348 348 347 349 349 346
357 356 356 356 355 355 355 356 356 357 358 357 355 356 355 351 347 347 347 347 347 347 347 348 349 349 349 349 349 352 352 352 350 349 350 350 350 351 351 351 350 351 351 350 350 349 348 348 348 348 349 348 348 348 348 349 349 348 349 348 348 348 348 348 347 348 347 347 347 346 346 346 346 346 342 339 340 341 343 346 349 350 350 348 348 350 347 346 347 348 349 349 348 347 348 347 345
356 355 355 356 356 356 356 356 355 357 359 357 356 356 355 350 349 349 347 347 346 347 348 347 348 349 348 348 349 351 352 351 350 349 350 350 350 351 351 351 351 351 351 350 350 349 349 348 348 348 348 348 348 348 348 349 349 348 349 348 348 348 348 348 347 347 347 347 347 346 346 345 345 345 341 340 342 345 347 349 350 350 351 349 348 349 348 347 348 349 350 348 347 346 346 346 345
354 354 355 355 356 356 356 356 354 359 360 355 355 356 354 350 350 350 347 347 347 348 349 348 349 349 348 348 348 350 351 350 350 350 350 351 351 351 351 351 351 351 351 350 350 349 349 348 348 348 349 349 348 348 348 348 348 348 348 347 347 347 347 347 348 347 347 347 347 346 345 344 343 342 341 343 345 348 349 350 350 350 350 349 349 349 348 347 348 349 348 347 347 348 349 348 347
354 354 357 356 356 355 355 355 353 358 359 354 356 355 353 353 351 348 347 347 348 349 349 348 348 348 348 348 347 349 350 349 349 350 350 351 352 351 351 351 351 351 351 351 351 350 349 348 348 348 349 349 348 348 348 348 348 348 348 347 347 347 347 347 348 348 348 347 347 345 343 342 341 341 343 345 347 349 349 349 350 350 349 350 350 349 348 348 348 350 349 349 350 350 352 351 350
356 355 357 356 357 358 356 355 354 358 357 355 358 353 352 356 350 347 348 347 348 350 349 348 348 347 347 347 347 347 349 349 349 350 350 351 352 352 351 351 351 352 351 351 351 351 350 349 348 348 349 349 348 348 348 348 348 348 348 347 347 347 348 348 347 347 347 346 345 343 341 341 341 343 345 346 347 349 349 349 350 350 350 350 350 348 349 348 348 350 350 351 352 352 353 352 350
357 357 357 356 355 357 356 354 355 358 355 355 361 356 353 354 349 347 349 347 348 349 349 348 347 347 347 347 347 347 348 349 349 349 351 351 351 351 351 351 351 352 352 351 351 351 350 349 348 348 349 348 348 349 349 349 348 348 348 348 348 347 347 348 347 346 345 343 342 341 340 341 343 345 346 346 347 348 350 350 350 350 351 351 350 348 349 349 350 351 351 352 354 354 354 352 350
356 353 353 355 354 356 358 354 355 359 356 356 362 360 356 353 348 348 348 347 348 349 349 348 347 347 346 347 347 346 347 348 348 348 350 351 351 352 352 351 351 351 351 352 352 351 351 350 348 348 349 349 349 349 349 348 348 347 348 348 348 347 345 345 346 346 344 341 341 341 341 342 345 346 346 347 347 348 349 350 350 350 350 351 350 349 349 350 350 351 351 353 354 354 354 353 350
355 351 348 351 353 355 358 357 356 358 358 358 361 361 357 351 347 347 348 349 348 348 349 348 348 347 346 347 346 346 346 347 348 349 349 351 352 352 352 352 351 351 351 352 352 351 351 350 349 349 349 349 349 349 349 348 348 348 348 348 345 344 345 345 343 344 344 343 343 343 343 344 346 347 347 347 347 348 349 350 351 350 349 351 350 350 350 350 349 351 352 353 352 352 354 353 351
349 350 348 351 355 352 355 360 357 355 359 361 361 360 357 351 347 347 348 349 348 348 348 348 348 347 347 346 345 346 346 345 347 348 349 350 352 352 352 352 351 351 351 351 352 351 351 351 350 349 349 349 348 348 348 349 349 349 349 347 343 341 344 345 343 342 344 344 344 343 343 345 346 347 348 348 348 347 348 350 351 350 350 351 352 352 352 350 349 351 354 355 352 351 354 354 352
345 348 347 349 353 352 354 359 358 356 359 362 361 361 359 352 347 346 347 349 349 348 348 348 348 347 347 346 345 346 346 345 347 349 349 350 352 352 352 353 352 351 351 351 351 351 351 351 351 349 348 348 347 347 348 350 349 349 349 348 344 341 342 343 343 344 344 345 346 344 344 346 347 348 349 349 348 348 348 349 351 351 351 352 353 354 354 352 351 353 356 355 352 351 350 351 350
349 352 350 348 349 352 356 359 358 358 360 363 363 362 361 353 348 347 347 348 349 348 347 347 348 347 346 346 345 345 345 345 346 348 349 350 352 352 353 353 352 352 352 352 351 350 350 350 350 349 348 347 346 347 349 350 350 350 349 348 346 344 344 343 344 345 346 347 347 344 345 347 347 349 350 350 348 348 349 350 351 351 351 353 355 355 354 352 353 355 357 354 351 352 351 350 349
353 356 353 350 349 352 359 361 358 358 360 361 362 362 360 353 348 347 346 348 349 348 348 347 347 347 346 345 344 345 344 345 346 347 349 350 352 352 353 353 353 353 353 352 351 350 350 349 350 350 347 346 346 348 350 350 351 350 350 349 348 347 346 345 346 347 348 348 346 346 347 348 349 350 351 351 349 349 349 350 351 352 352 354 355 354 353 353 354 355 356 354 351 352 355 354 351
354 354 352 350 350 353 359 361 357 358 359 360 361 360 359 354 350 348 347 348 348 347 347 347 347 347 346 346 344 344 344 343 345 347 349 350 351 352 353 353 353 353 354 353 351 351 350 350 351 350 347 345 345 347 348 349 349 349 349 349 348 348 347 346 348 348 349 349 347 346 349 349 351 351 351 351 351 349 349 349 350 352 353 354 354 354 354 354 355 355 356 356 354 353 355 354 349
354 352 350 348 351 355 357 360 359 357 358 361 361 360 358 356 352 351 349 347 347 346 346 346 347 346 346 345 345 344 343 343 343 345 348 349 351 352 353 353 353 353 353 353 352 351 351 350 350 350 347 346 345 344 344 346 346 346 347 347 347 348 348 347 348 348 348 350 349 347 348 350 351 351 350 350 351 350 349 349 350 352 353 354 355 354 354 355 355 355 356 357 358 355 355 354 348
352 350 344 344 352 352 348 356 361 357 358 360 360 358 358 358 354 353 351 350 349 348 347 347 346 346 345 344 344 344 343 343 342 343 347 349 350 352 352 353 353 353 353 352 353 352 351 350 348 347 347 345 344 344 344 344 344 345 346 346 347 348 348 346 346 347 348 350 351 350 349 349 350 352 351 349 352 352 350 350 351 352 353 353 354 354 354 356 355 355 356 356 358 357 356 355 350
345 350 345 344 353 352 348 357 359 357 357 359 358 352 352 356 356 354 353 355 355 352 349 348 346 346 345 343 343 343 343 343 343 342 346 349 350 352 352 353 353 352 353 352 352 351 351 350 347 346 346 345 344 344 344 345 345 346 346 347 347 347 348 348 347 348 349 349 351 352 351 349 349 351 350 350 353 353 351 352 351 352 353 352 353 354 355 356 355 355 356 356 358 358 356 356 353
336 344 348 347 354 354 355 358 356 353 352 356 355 344 344 354 356 355 354 355 356 355 352 348 347 347 345 344 343 342 342 341 342 342 346 349 350 351 352 353 352 352 352 352 351 351 351 350 347 346 346 345 345 345 346 346 346 346 346 348 349 349 350 350 350 350 350 350 351 352 352 351 349 351 351 351 353 353 352 353 353 353 354 353 354 354 356 356 355 356 355 355 357 357 355 357 355
328 335 343 346 353 355 355 354 350 346 346 355 356 343 341 349 353 355 355 354 355 355 354 350 349 349 347 345 343 342 342 341 341 343 345 348 349 351 353 352 352 352 351 351 350 350 351 351 348 346 346 346 346 346 346 346 347 347 347 349 350 350 351 350 348 348 349 350 350 351 352 352 350 351 353 353 353 353 352 353 354 353 354 355 354 355 356 356 356 355 353 354 356 354 355 358 356
327 335 340 346 354 354 354 353 348 346 347 353 356 348 343 343 349 356 355 355 356 355 355 353 351 350 348 346 344 342 342 341 340 342 344 347 350 351 352 352 352 352 352 351 351 350 351 350 348 348 347 346 346 346 346 346 346 347 346 348 349 348 350 349 346 345 346 347 347 349 352 353 351 349 351 352 351 353 352 352 354 353 354 355 355 356 357 357 356 355 353 354 354 353 355 357 357
335 345 346 349 354 353 354 352 347 346 346 345 349 351 346 340 346 357 356 354 357 355 355 355 352 351 350 348 344 341 342 341 340 341 343 347 349 350 350 351 351 351 352 351 351 351 350 349 348 349 348 346 346 346 346 347 347 347 347 347 348 348 348 349 348 346 345 345 346 347 349 352 352 350 350 350 350 350 350 352 354 354 355 356 356 357 357 356 356 354 354 355 354 353 354 354 357
344 350 348 350 351 351 353 350 346 346 343 340 344 348 345 340 343 353 354 352 354 355 355 354 352 352 352 350 346 342 342 342 340 340 344 347 348 350 350 351 351 350 351 351 351 351 351 350 349 349 349 347 346 346 346 347 346 347 347 347 348 348 347 348 348 347 346 346 347 348 349 351 353 353 353 350 348 349 350 353 356 357 356 357 357 357 357 356 355 354 354 354 354 354 355 354 356
346 349 348 349 349 348 350 349 346 346 341 337 342 346 344 339 341 349 354 353 354 355 354 353 352 352 353 352 348 344 342 341 340 341 344 347 347 349 350 350 350 350 351 351 352 352 352 352 351 350 350 348 347 346 346 347 347 347 347 346 347 347 348 348 348 348 348 347 348 349 350 351 352 354 355 354 352 352 353 354 357 358 357 357 357 356 358 357 357 356 355 353 354 355 356 356 356
346 350 348 344 344 344 344 344 344 342 338 337 342 347 345 338 338 348 355 354 352 353 353 354 354 352 353 353 349 345 342 340 340 340 343 346 348 349 349 350 350 350 350 351 351 352 352 353 352 351 351 349 347 347 347 347 348 348 348 347 347 347 348 349 349 349 348 348 350 352 351 350 351 352 354 355 355 355 355 355 357 358 357 357 357 357 357 357 357 357 355 354 355 355 356 356 356
347 347 339 333 339 342 340 339 339 337 335 338 344 347 346 341 341 349 353 351 350 349 350 352 352 352 353 353 350 346 343 340 340 341 342 346 349 349 349 349 350 351 350 351 351 352 352 353 353 352 352 350 348 348 348 348 349 349 349 348 347 347 348 350 350 349 349 349 350 352 351 351 352 352 354 356 356 356 356 356 356 356 356 356 356 355 356 356 356 356 355 355 356 356 356 357 356
345 341 332 325 332 340 341 339 337 335 334 339 346 347 343 340 343 354 355 352 352 349 348 350 351 353 352 352 351 348 345 341 340 341 341 345 348 348 349 349 350 350 350 351 351 351 352 353 353 352 351 350 349 348 348 348 349 349 349 349 348 348 348 350 350 351 351 350 350 351 352 353 354 354 355 356 355 355 356 357 356 356 356 356 355 354 354 355 355 355 355 356 357 356 355 356 357
346 342 335 326 325 332 336 336 335 336 338 343 347 343 337 335 343 355 355 353 354 351 348 348 350 352 351 351 352 349 347 342 340 342 342 345 348 348 349 350 349 350 350 350 351 352 353 353 353 352 351 351 349 349 349 348 349 349 349 349 348 347 348 349 351 351 351 350 351 351 351 352 354 354 355 354 353 353 354 356 356 356 356 356 356 355 355 357 355 355 355 354 356 356 355 356 358
346 344 339 331 328 332 332 332 336 338 340 344 345 340 338 341 346 353 354 354 354 352 350 348 348 350 349 350 352 351 348 344 341 341 342 345 349 349 349 349 349 350 350 350 351 352 352 352 352 350 350 351 349 349 349 349 350 350 349 349 348 347 347 349 350 351 350 350 351 351 350 351 351 352 352 352 353 352 353 354 356 356 356 355 356 355 356 358 356 356 356 354 356 358 356 358 359
343 340 337 332 333 337 332 333 339 336 333 338 341 338 338 342 344 349 355 355 355 354 352 350 347 348 349 350 352 352 350 345 342 342 343 347 349 349 349 349 349 349 350 350 351 351 350 351 352 351 351 352 351 350 350 350 350 350 349 349 348 348 348 349 351 351 351 350 349 350 350 350 350 351 352 352 353 353 353 354 355 357 356 355 356 356 356 358 356 357 358 356 358 359 358 358 359
341 336 335 332 331 332 332 334 338 334 328 331 337 337 336 335 338 350 357 355 355 356 354 352 349 347 349 350 351 352 350 346 343 344 346 349 349 349 350 350 349 349 350 350 351 350 350 350 351 352 353 353 351 351 351 351 350 350 350 349 349 349 350 351 352 352 351 350 349 350 350 350 351 351 352 352 353 353 352 351 352 354 355 354 355 356 357 356 356 357 358 357 358 359 357 358 358
332 333 334 331 329 328 329 331 333 331 329 329 332 335 336 337 342 351 357 356 357 356 355 355 351 347 348 349 351 352 351 348 345 344 347 349 350 350 350 350 350 349 350 351 351 351 351 351 352 352 353 352 351 352 352 352 351 351 351 349 348 349 350 351 351 351 350 350 351 351 351 351 352 352 351 350 351 352 352 351 352 353 354 355 355 355 356 355 355 357 358 358 358 357 357 358 359
323 331 332 326 327 327 327 328 326 326 328 329 326 328 336 345 351 355 356 357 358 357 356 356 354 349 347 347 349 351 351 350 346 344 346 348 350 350 350 351 350 350 351 351 351 352 352 352 352 352 352 352 353 353 352 351 351 352 351 349 348 347 348 349 350 349 350 351 352 353 353 353 353 352 351 350 350 352 353 353 354 355 356 357 356 356 356 355 354 356 357 358 360 359 358 360 360
319 326 327 320 319 321 321 322 321 321 324 327 323 322 334 348 354 357 358 358 358 357 356 356 354 352 348 347 349 350 351 350 347 346 346 348 349 349 350 351 351 352 352 352 352 352 352 352 353 353 353 353 353 353 352 351 351 351 351 350 349 347 347 349 350 350 350 351 352 353 354 354 353 351 350 350 350 350 351 353 355 356 357 357 356 355 356 356 355 355 356 356 358 358 358 360 360
323 326 327 322 317 316 316 317 317 316 320 325 321 322 338 351 352 354 358 359 358 356 355 355 354 352 350 349 348 349 351 351 348 346 345 348 350 349 349 351 352 353 353 352 353 353 353 353 353 353 353 353 353 353 352 352 351 350 350 350 351 350 348 348 351 351 351 352 353 353 353 353 353 351 350 351 351 352 352 352 355 356 356 357 356 355 356 357 357 357 356 357 358 357 358 359 359
Wind_Speed
9 8 6 8 6 3 1 2 0 1 0 3 2 1 2 2 4 6 8 9 7 6 4 9 11 7 2 1 3 3 4 1 0 1 1 4 6 13 12 9 14 15 14 13 11 11 11 11 9 6 6 7 7 8 8 8 9 8 10 12 10 9 10 12 12 13 14 15 15 16 16 16 16 15 15 14 14 15 16 16 16 15 16 16 16 16 17 17 17 17 17 17 17 17 17 17 17
8 6 4 5 4 1 0 1 0 2 2 4 2 1 3 3 5 7 9 6 6 7 8 11 9 5 3 2 5 4 5 5 4 2 3 6 10 10 9 11 14 15 14 13 12 11 11 11 10 8 6 5 6 8 8 9 11 11 11 12 11 9 10 12 12 13 14 14 15 15 15 15 15 14 14 14 14 16 17 17 16 15 16 16 16 16 16 16 16 15 15 16 16 16 16 16 17
7 5 3 3 1 1 0 1 0 2 3 4 3 1 1 3 5 7 6 4 9 11 12 11 7 4 3 4 3 1 4 4 3 5 5 8 8 6 9 12 14 14 13 12 12 12 11 11 11 10 8 7 7 8 8 10 12 13 12 13 12 11 11 12 13 14 15 14 14 14 15 15 14 13 13 14 15 16 16 17 16 16 16 16 16 17 16 16 15 14 14 15 15 15 15 15 17
5 3 2 2 1 0 1 1 1 1 4 4 3 2 0 3 7 7 5 6 11 13 13 10 5 3 1 4 2 2 5 4 5 5 6 6 5 9 12 12 13 12 11 11 12 11 10 10 10 9 9 8 8 8 8 9 10 11 12 12 13 12 12 12 12 14 15 15 14 14 14 14 13 13 13 14 15 15 15 16 16 16 15 16 17 17 16 15 15 15 14 14 14 14 14 15 16
3 2 3 2 1 0 0 1 1 1 3 2 4 3 1 5 8 8 7 9 11 11 11 8 4 4 3 6 3 1 4 4 6 5 7 6 7 12 13 12 12 10 10 10 10 9 8 9 9 8 7 7 8 8 7 7 8 9 11 12 13 12 12 12 12 13 15 15 13 13 14 13 13 13 13 14 15 15 14 15 15 15 15 16 16 16 16 15 15 14 13 13 13 14 14 15 15
3 2 3 1 0 1 0 1 2 2 3 0 3 4 3 6 8 11 10 9 8 8 7 5 5 7 6 6 5 4 3 3 6 5 7 9 11 13 12 12 11 9 9 10 9 8 7 7 7 6 5 6 6 7 5 6 7 8 9 12 13 12 13 12 12 13 14 15 13 12 13 12 12 13 12 14 15 14 14 14 14 14 14 15 15 16 15 15 14 14 13 12 13 13 14 15 15
2 2 1 1 1 1 1 3 3 3 2 1 1 5 6 8 9 12 13 10 8 6 4 5 8 9 6 3 5 8 4 3 6 7 8 12 13 13 12 12 10 10 10 10 9 7 7 7 6 5 5 5 5 5 4 4 6 7 8 12 12 11 12 11 12 13 13 14 13 13 12 12 13 13 12 13 15 14 14 13 14 14 14 14 15 15 15 14 13 14 13 11 12 14 14 15 15
3 1 1 1 1 1 2 4 3 2 2 0 2 5 7 9 9 11 12 8 8 6 5 7 6 6 5 2 4 7 8 8 9 10 12 14 14 13 12 11 10 10 10 10 9 8 6 6 6 4 4 4 4 4 3 3 5 7 8 10 11 11 11 11 12 12 13 13 12 12 12 12 12 14 12 12 14 14 13 13 13 14 13 14 14 14 14 14 13 13 12 11 13 14 14 15 15
2 1 1 0 1 3 3 4 3 2 2 3 4 6 7 6 6 9 10 7 8 7 6 5 2 3 7 7 7 6 8 11 14 14 14 14 13 12 11 10 10 10 10 9 8 8 7 7 6 5 4 4 3 3 3 3 4 6 7 8 10 11 10 10 12 12 12 12 11 11 11 12 12 13 12 12 14 13 13 13 14 13 13 13 13 13 13 13 13 12 11 11 13 14 14 14 14
1 0 1 1 2 4 4 3 3 3 3 4 5 7 6 4 5 7 9 9 8 7 6 4 5 7 9 9 7 5 8 13 16 15 13 13 12 12 10 9 9 10 9 8 7 6 6 7 6 5 4 4 3 3 4 4 5 6 7 8 9 11 10 10 11 11 12 11 11 11 11 12 11 12 13 14 14 13 14 15 15 14 13 13 12 13 13 14 12 10 11 12 13 14 14 14 14
1 0 1 1 3 5 5 4 4 4 4 5 5 5 3 4 7 7 8 9 6 7 7 4 8 11 10 8 5 6 10 14 16 16 13 12 12 11 9 9 9 9 9 8 7 5 6 7 6 5 4 4 4 3 4 5 6 7 9 8 9 11 11 10 11 11 11 11 10 10 11 11 10 11 13 15 15 13 13 14 15 14 13 12 11 12 13 12 11 10 12 12 13 13 14 15 15
1 1 1 2 3 3 5 5 5 6 6 7 7 4 2 4 8 9 9 9 7 8 5 2 7 8 9 7 5 9 12 13 14 15 13 12 11 10 9 9 9 9 8 7 6 5 5 5 5 5 4 5 3 3 4 5 7 9 10 8 8 10 10 10 10 10 11 10 9 9 11 11 10 10 11 14 16 14 13 13 14 13 13 12 10 11 12 11 10 11 12 12 12 13 14 14 14
1 1 1 2 2 1 5 5 6 7 5 7 6 4 4 4 5 8 10 10 7 7 4 3 8 6 7 8 6 8 10 11 13 13 12 11 10 9 8 9 9 8 7 6 5 4 5 5 4 4 5 5 4 4 4 6 8 11 10 7 7 9 9 9 9 10 11 10 8 8 10 11 10 11 10 11 14 14 14 14 13 13 12 12 10 10 11 10 10 11 11 12 12 12 13 13 12
1 1 1 2 2 2 4 5 7 7 5 5 5 5 5 3 4 5 9 11 5 4 6 6 8 7 8 8 6 7 9 12 13 12 12 11 10 9 8 8 8 8 7 6 5 4 5 4 4 3 4 4 4 5 6 7 10 12 10 8 8 8 8 8 8 9 10 10 8 8 10 11 11 12 11 9 12 13 14 14 13 12 12 11 10 10 10 9 10 10 11 11 11 11 11 11 11
1 0 1 2 3 4 2 3 7 6 4 5 5 7 6 5 5 4 4 7 6 5 8 6 3 3 7 7 6 9 12 14 13 13 12 11 10 8 8 8 8 7 6 6 5 5 5 4 3 4 4 4 5 6 7 9 11 12 10 9 10 10 9 8 9 9 10 10 9 10 11 11 11 12 11 10 11 11 11 13 12 11 11 10 10 10 9 8 8 8 9 9 10 10 9 9 10
0 1 0 2 3 4 2 3 7 6 5 4 5 8 9 6 4 3 2 4 8 6 4 4 2 1 7 6 10 14 16 16 14 13 12 11 9 8 7 7 7 6 5 5 4 5 5 4 3 4 5 5 6 7 8 10 12 12 9 10 10 10 10 10 10 11 10 11 11 11 11 12 12 12 12 11 11 10 9 11 11 11 11 10 9 9 8 8 7 7 7 8 8 9 8 8 9
1 1 0 3 3 4 3 4 6 5 5 6 7 8 10 8 4 4 3 6 10 7 5 5 4 5 9 11 16 19 18 16 15 14 12 10 9 8 7 6 7 6 5 4 4 4 4 4 4 5 6 6 7 8 9 11 12 12 11 11 10 10 12 11 11 12 11 11 11 10 10 12 13 13 12 11 11 11 9 9 10 10 9 9 9 8 8 8 7 7 7 7 8 8 8 7 8
1 0 1 3 3 4 2 2 3 4 7 8 8 9 11 10 7 6 7 9 9 9 8 9 10 10 14 18 20 19 17 16 14 13 11 10 9 8 7 7 7 6 5 5 4 4 4 4 4 5 6 8 9 9 11 13 13 14 14 12 11 12 13 12 12 13 13 13 12 11 11 11 12 12 12 11 10 10 9 8 9 8 7 8 8 8 7 7 7 7 7 8 8 8 7 7 6
1 1 0 2 2 3 2 2 2 2 8 9 7 8 10 10 10 8 6 8 9 9 9 10 13 13 15 20 20 18 17 16 14 13 11 10 9 8 8 7 7 7 6 5 4 3 4 4 5 6 7 8 9 10 12 14 15 15 15 13 11 12 13 12 12 13 14 13 13 13 12 12 12 12 12 12 10 9 8 7 7 6 6 7 7 8 8 8 8 7 7 7 7 7 7 7 7
1 1 1 2 2 2 1 1 3 2 7 11 8 6 7 8 8 6 8 10 7 8 9 10 13 14 16 18 18 18 16 14 13 12 11 10 9 8 7 7 7 7 6 5 4 3 4 4 5 6 8 8 9 11 12 14 16 15 15 14 11 12 13 13 13 12 13 14 14 13 13 13 12 11 11 11 10 8 7 6 7 6 7 8 9 9 9 9 8 7 7 6 6 7 7 7 7
0 1 1 3 1 1 2 1 2 2 6 9 9 8 8 7 5 7 12 10 5 7 8 9 14 17 17 17 18 17 15 14 12 11 10 9 8 7 6 6 6 7 7 5 4 3 4 4 5 6 8 9 9 11 13 15 16 16 16 15 12 11 12 13 13 13 13 14 13 13 13 12 11 10 9 9 9 7 7 7 8 8 9 10 10 10 10 9 8 7 6 6 6 7 7 7 7
1 0 2 2 0 1 2 1 1 3 7 8 10 10 9 6 5 9 11 6 2 6 7 8 14 17 18 18 17 16 14 13 11 10 10 9 9 7 6 6 6 7 7 6 4 4 4 4 5 6 8 9 10 11 13 15 16 16 16 15 12 10 11 12 13 13 13 12 11 11 12 11 10 9 9 9 8 8 8 10 10 11 11 11 11 11 9 8 7 6 6 7 7 7 7 8 9
2 1 1 1 1 1 2 1 2 4 8 8 9 8 7 8 6 6 4 2 1 5 8 9 13 16 18 18 16 15 13 12 11 11 10 10 9 8 8 7 7 7 6 6 5 4 4 4 5 6 8 10 10 11 13 14 15 15 16 16 14 11 10 12 12 13 12 11 10 10 9 9 9 9 9 9 9 9 10 11 12 12 12 11 11 10 8 7 7 6 6 7 7 7 7 8 9
3 2 4 3 2 2 1 1 2 3 6 5 6 7 7 8 7 5 2 4 3 9 11 12 15 16 17 16 14 14 13 12 11 10 9 8 8 8 8 7 7 7 6 6 5 4 4 4 5 6 8 10 11 11 12 13 14 16 17 16 14 13 12 12 12 12 11 10 9 8 8 8 8 8 8 9 10 10 11 12 11 11 11 10 10 9 8 7 6 6 6 6 7 7 7 8 8
5 3 3 3 3 4 4 4 3 5 5 3 6 8 4 4 7 7 3 4 7 11 13 13 15 15 14 13 13 12 11 11 10 10 8 7 8 8 7 7 8 6 6 6 5 5 4 4 5 6 7 9 10 10 11 12 13 15 16 16 15 14 13 12 12 11 10 9 8 7 7 7 7 8 9 10 11 11 11 11 10 9 9 9 9 8 7 6 6 6 6 7 7 8 8 8 8
5 3 1 3 4 6 8 7 5 4 3 1 7 8 4 4 7 6 3 6 10 12 14 14 14 14 12 11 12 11 10 11 11 10 9 8 9 9 8 8 8 7 7 6 5 5 5 5 6 6 7 8 10 10 11 11 12 13 14 14 14 13 12 12 11 11 10 9 7 7 6 7 7 8 10 11 12 11 11 10 9 8 8 8 8 7 7 7 7 7 8 8 9 10 10 9 10
3 2 4 1 2 6 10 10 5 2 3 2 7 8 5 4 3 3 5 8 12 13 14 14 13 13 11 10 11 11 11 11 11 11 10 10 10 9 9 9 9 8 7 7 6 6 6 6 6 7 7 8 9 10 11 11 12 12 12 13 13 12 12 11 11 10 9 8 8 7 7 7 8 8 10 11 11 10 9 9 8 8 7 7 7 7 7 7 7 8 9 9 10 11 11 11 11
6 5 7 6 5 3 8 12 5 1 3 3 5 8 5 4 2 2 9 11 13 14 13 13 13 11 11 10 10 10 10 11 11 11 12 12 11 10 10 9 10 10 8 8 7 7 7 7 7 7 7 8 9 10 11 12 12 12 11 12 12 11 11 10 10 10 9 8 8 8 7 8 9 10 11 11 9 8 7 7 7 7 7 6 7 7 7 7 7 8 9 10 10 11 11 11 11
6 4 5 6 7 6 6 10 4 0 2 4 0 5 4 4 1 3 11 12 12 13 13 13 11 10 10 10 9 8 9 11 11 11 11 11 10 11 10 10 10 10 9 9 8 8 8 8 8 8 7 8 9 10 10 11 11 11 11 11 11 11 10 10 10 9 9 9 8 8 8 9 11 11 10 9 8 7 6 6 6 6 6 6 7 7 6 7 7 8 9 10 10 10 10 10 10
4 3 4 5 5 4 5 4 2 1 2 5 3 3 3 3 1 5 11 13 14 13 12 12 10 9 9 9 8 8 10 11 11 11 10 10 10 11 10 10 10 10 9 10 9 9 8 8 9 9 8 9 9 9 9 9 9 9 9 10 10 9 9 9 9 9 8 9 9 9 11 11 11 10 9 8 7 5 5 6 5 5 6 6 6 6 6 6 7 8 9 9 9 9 9 10 10
3 3 3 3 4 3 4 3 4 1 1 5 3 2 2 2 3 7 11 13 16 13 12 13 10 9 9 8 8 8 10 11 12 11 11 11 10 10 11 11 11 10 10 11 11 10 9 8 9 9 9 10 10 9 8 8 8 8 8 8 8 8 8 8 9 9 9 10 10 11 11 11 9 8 7 6 6 4 4 4 4 5 5 6 6 6 6 6 7 7 8 9 8 8 8 9 9
2 1 2 2 3 3 3 3 4 2 1 4 2 1 1 1 5 9 10 12 15 13 13 13 12 11 9 8 8 8 9 10 11 11 11 11 11 11 11 12 12 11 11 11 11 11 10 9 9 9 10 11 10 9 8 8 8 8 7 6 6 7 8 9 9 9 10 11 11 10 10 9 8 7 6 5 4 3 3 3 3 4 5 5 5 5 5 6 7 7 7 8 8 8 8 8 8
0 0 2 2 3 3 3 2 2 2 3 2 2 2 2 2 6 9 9 12 13 11 12 12 12 12 10 8 8 8 8 9 10 11 11 11 11 11 12 12 12 12 11 11 12 12 11 10 10 10 10 11 10 9 8 7 7 7 6 6 7 8 8 9 10 10 10 10 9 9 9 8 6 5 4 3 3 2 2 2 2 3 4 5 5 5 5 5 6 6 7 7 7 8 7 6 6
0 2 2 3 4 5 5 3 2 3 4 1 2 2 2 3 8 10 10 13 12 11 12 12 11 10 9 9 8 8 8 8 9 11 13 12 11 11 11 12 13 12 12 12 12 12 12 11 10 11 11 11 10 10 8 7 6 6 6 6 8 9 9 8 9 10 9 8 8 8 7 6 5 4 3 3 3 2 2 2 2 3 4 4 5 5 5 5 5 6 6 6 6 7 6 5 6
2 3 3 4 5 5 5 4 5 6 4 2 2 2 2 4 9 10 11 12 13 12 11 11 11 10 9 8 8 8 8 9 10 12 14 13 12 12 12 12 13 13 12 12 13 12 12 11 11 11 11 11 12 10 8 7 7 6 6 7 8 10 9 9 9 9 8 7 7 7 6 5 5 4 4 3 3 2 2 2 2 3 3 4 5 4 4 5 5 6 6 6 5 5 5 5 6
3 4 3 5 5 4 4 3 4 5 4 3 2 2 3 5 9 10 11 11 12 11 9 9 10 9 9 8 8 8 9 10 10 12 14 14 13 13 12 12 12 13 12 13 14 13 13 13 11 12 12 13 13 11 9 8 8 8 8 8 9 9 10 10 10 9 8 7 6 6 5 5 5 4 4 4 3 2 2 2 2 3 3 4 4 4 4 4 5 5 6 5 4 3 4 5 6
6 5 4 5 4 4 4 4 2 0 2 3 2 3 3 6 9 11 11 11 11 11 10 10 10 9 9 10 10 10 10 9 8 11 13 14 13 13 13 12 13 13 13 14 15 14 14 14 13 13 13 14 14 12 11 10 10 10 9 9 9 9 10 10 10 9 7 7 7 6 5 5 5 3 2 3 3 2 2 2 3 3 3 4 4 3 4 4 4 5 6 5 4 3 3 4 6
5 4 4 4 3 4 3 4 4 2 1 2 2 3 3 5 6 7 10 12 13 12 12 12 12 11 9 10 12 11 10 7 7 10 12 13 13 14 14 13 14 14 14 15 16 15 15 15 14 14 14 15 15 14 13 12 12 12 10 9 9 8 10 9 8 8 7 6 7 6 5 5 4 2 1 2 2 2 1 2 2 3 3 2 3 3 3 3 4 5 5 5 4 3 3 5 5
2 2 4 3 2 4 3 3 4 2 2 2 3 3 3 4 4 5 9 12 12 11 12 12 13 13 11 11 12 11 10 8 8 10 12 14 14 15 14 13 14 14 14 15 15 15 15 15 15 16 16 16 15 15 15 15 15 14 11 10 9 7 8 9 8 8 8 6 6 6 5 5 3 1 1 2 3 2 1 1 1 2 2 2 2 2 3 3 4 5 5 5 4 3 3 5 5
1 1 2 2 4 4 1 3 4 2 2 1 3 4 2 3 4 5 8 8 7 8 9 8 9 12 12 13 12 11 11 10 9 10 12 14 14 15 15 14 15 14 14 15 15 16 16 17 18 18 17 17 17 17 16 16 15 13 12 11 10 8 8 9 9 9 8 6 6 6 6 4 4 3 3 3 3 3 2 1 1 1 2 2 2 3 3 3 4 5 5 4 4 3 2 4 5
3 3 3 2 6 4 1 5 5 2 1 2 4 3 3 6 7 7 6 4 4 6 8 8 9 10 10 11 10 10 11 11 10 11 12 14 16 16 15 15 15 15 16 17 17 17 17 19 20 19 18 18 18 17 17 16 14 13 12 10 10 9 8 8 9 8 8 7 6 6 6 5 5 5 4 4 4 3 2 2 2 2 2 2 2 3 3 3 4 4 4 4 4 4 3 3 4
4 5 6 6 7 6 6 9 6 2 3 4 5 4 3 6 10 10 7 6 7 6 9 12 11 10 9 9 10 11 11 10 11 11 13 15 17 17 16 16 16 16 17 18 18 18 17 19 21 21 19 19 18 18 18 17 15 14 14 11 9 9 8 8 9 8 7 7 6 5 5 5 5 5 5 5 5 4 3 2 2 2 3 3 2 2 2 3 4 4 4 4 4 5 4 3 3
3 2 4 7 7 8 9 10 6 3 2 2 4 5 3 3 8 11 9 9 10 8 9 14 13 11 10 9 10 11 11 11 11 12 13 15 16 17 17 18 19 18 18 18 18 18 18 19 22 23 21 20 19 19 18 17 16 16 15 12 9 9 8 9 10 9 8 8 7 6 5 5 5 5 6 7 7 6 4 3 3 3 3 3 2 2 2 3 3 3 3 2 3 5 5 3 3
2 6 7 5 7 8 9 8 5 1 0 1 3 3 4 4 4 8 11 11 10 10 12 13 13 13 13 11 11 11 12 12 11 11 13 15 17 19 20 20 20 19 18 18 19 19 20 22 24 23 23 22 21 20 19 18 17 17 16 13 11 11 9 9 11 10 9 9 9 8 7 6 6 6 6 7 8 8 7 5 4 4 3 3 3 2 2 3 3 4 3 2 4 4 4 3 3
1 1 0 4 8 8 8 6 3 1 2 2 4 4 4 5 2 5 11 12 12 14 14 14 15 14 13 13 13 13 13 13 13 13 14 16 19 21 22 21 20 19 18 20 20 20 22 25 25 24 23 23 22 21 20 19 18 17 16 15 14 13 11 10 10 10 10 9 9 9 9 8 7 6 7 8 9 9 8 7 5 5 4 3 3 2 3 3 3 3 2 2 4 4 3 3 3
4 11 11 10 9 7 5 3 2 2 3 4 6 8 5 4 2 4 8 11 13 15 14 14 15 15 13 13 13 13 12 12 13 14 16 19 21 22 22 20 20 19 18 19 19 19 21 24 26 25 25 24 23 23 22 20 19 18 17 17 15 14 13 12 11 10 10 9 10 10 10 10 8 7 7 8 9 9 8 7 6 5 4 4 3 3 3 3 3 2 2 2 3 3 2 3 3
7 11 12 9 7 5 3 2 3 1 4 4 6 11 7 4 2 5 7 7 9 11 10 12 15 15 14 12 12 13 11 11 12 13 16 20 20 19 19 19 20 19 17 18 19 19 20 22 25 27 26 25 25 24 23 22 20 19 19 18 17 15 13 12 12 11 11 11 11 11 11 10 10 9 8 8 9 9 9 8 7 6 5 5 5 5 4 3 3 2 3 3 2 2 2 2 2
9 6 7 6 4 2 2 2 0 3 3 1 3 10 9 5 2 3 5 4 5 6 7 11 16 17 15 13 13 13 11 12 12 12 14 16 15 15 17 18 18 18 18 19 20 20 20 22 25 27 27 27 27 26 25 23 21 21 20 19 18 16 14 13 13 13 13 13 12 11 12 12 11 11 10 10 9 9 10 9 8 7 7 6 6 6 6 5 4 3 3 3 3 3 2 2 2
7 5 7 4 2 2 2 2 2 4 2 3 2 8 7 7 4 3 5 7 8 9 8 10 14 16 15 14 14 12 11 12 13 12 12 12 14 16 18 18 18 18 20 21 21 20 20 22 25 28 28 29 28 28 27 25 23 22 21 21 20 18 16 14 14 14 14 14 14 13 13 12 13 12 11 11 10 10 10 11 9 8 8 7 7 7 7 7 6 5 4 4 4 4 3 3 3
9 8 6 5 3 3 3 3 2 3 2 2 3 6 4 6 3 4 6 8 9 9 10 11 12 14 15 14 14 12 12 13 12 12 12 12 14 18 19 19 20 20 21 22 21 21 20 21 25 28 29 30 30 29 29 27 25 24 22 22 22 20 18 16 15 15 14 15 15 14 13 12 12 12 11 11 11 10 11 11 10 9 9 8 7 8 8 8 7 6 5 5 5 5 5 5 4
7 4 3 4 4 3 3 3 3 1 3 4 5 5 3 2 3 4 5 8 9 9 8 9 12 13 13 12 12 12 13 13 12 12 13 14 17 20 20 20 21 21 22 22 21 21 21 22 26 29 30 30 31 30 30 29 28 26 24 24 23 23 20 18 16 15 14 15 15 15 15 13 12 12 12 12 11 11 12 12 11 10 10 9 8 8 9 9 8 7 7 6 6 6 6 5 5
2 2 3 5 3 2 0 1 1 2 3 3 4 3 2 0 3 2 6 8 10 11 8 4 10 13 13 12 10 10 11 12 12 13 13 15 19 20 20 21 21 21 22 22 21 22 23 24 28 32 32 32 32 31 31 30 29 28 26 26 25 25 23 21 18 16 15 14 14 14 15 15 14 13 13 12 11 11 12 13 12 11 10 10 9 9 9 9 9 8 8 7 6 6 6 6 6
5 2 4 3 1 0 1 2 2 1 3 3 3 4 2 1 3 2 9 11 11 13 11 3 6 12 14 13 10 9 10 12 13 13 13 14 18 20 20 21 21 21 22 22 23 25 29 29 29 31 31 30 31 32 32 31 30 29 28 28 27 27 25 22 20 18 16 14 14 14 15 15 15 14 13 13 12 12 12 13 13 12 11 10 10 10 10 10 10 9 8 8 7 6 6 7 6
8 6 6 3 1 2 1 1 2 2 3 2 2 4 2 1 1 5 12 14 13 13 12 7 2 9 12 12 12 11 10 11 12 13 12 14 17 19 20 21 22 23 24 25 26 28 30 31 30 29 29 29 31 32 31 30 31 30 29 29 28 28 26 22 19 18 17 15 14 14 15 15 14 13 13 12 13 13 12 13 13 13 12 11 11 10 10 10 11 10 9 9 8 8 8 8 8
4 4 5 3 3 4 1 1 3 3 3 1 2 3 1 1 2 7 12 14 14 14 12 8 3 7 10 11 12 10 8 8 10 11 10 11 15 19 20 21 22 23 24 24 26 25 25 27 26 26 27 30 30 28 28 29 30 29 28 28 28 27 26 23 22 21 19 16 15 15 15 15 14 13 12 12 12 12 12 12 12 12 12 12 12 11 11 11 11 11 10 9 9 10 10 9 8
2 4 5 1 2 3 2 2 2 2 3 1 1 2 1 0 3 8 10 12 13 13 11 8 4 5 8 9 11 10 9 8 9 10 10 11 16 19 21 22 22 22 22 22 22 22 22 23 23 23 24 24 24 23 25 29 29 26 26 28 27 27 27 26 25 24 20 17 16 15 15 14 14 13 12 11 11 11 11 11 11 11 11 11 11 11 11 11 12 12 12 10 9 10 10 9 9
2 4 5 3 2 2 2 1 0 2 2 1 2 2 2 2 3 6 9 10 10 11 11 8 5 4 5 6 7 8 10 10 9 9 10 11 16 19 20 21 20 19 19 19 19 20 21 20 21 22 21 20 21 22 23 27 28 27 27 28 27 26 27 26 25 24 21 18 18 17 16 15 14 14 13 12 12 12 12 12 11 11 11 11 12 12 11 12 12 13 12 12 11 11 11 10 9
1 2 3 3 3 2 4 4 1 1 1 0 2 1 2 2 3 5 7 8 8 9 9 6 4 2 3 3 3 5 7 8 9 10 10 10 14 17 18 18 17 17 18 19 19 19 20 20 21 21 20 20 21 20 22 25 27 28 29 28 25 24 26 25 23 21 20 19 18 18 18 16 15 15 14 13 12 12 13 12 12 12 12 13 13 13 12 12 12 12 12 11 11 12 12 11 10
Wind_Direction
143 150 141 138 146 166 205 271 201 70 124 88 58 88 78 93 121 117 126 127 123 140 131 127 145 150 155 185 139 81 32 92 44 332 86 73 113 140 139 127 137 143 143 141 140 139 141 140 136 135 119 116 125 124 122 121 118 115 114 116 120 118 114 113 114 112 111 111 110 109 109 108 107 107 105 103 106 107 105 105 103 103 104 100 99 98 95 93 91 91 92 92 91 90 90 90 88
147 146 128 132 150 198 23 289 43 87 116 101 72 27 75 146 141 125 134 134 124 140 139 135 141 113 79 93 122 112 56 30 8 37 76 108 122 130 134 132 136 136 136 138 139 139 140 139 137 137 131 132 132 126 129 130 127 125 123 121 123 122 116 115 117 114 112 112 111 110 109 109 108 108 104 106 110 108 107 106 104 103 102 101 100 99 97 95 93 91 90 91 90 90 91 92 90
142 147 134 142 172 288 293 279 144 122 115 105 100 62 126 150 117 113 118 102 118 134 134 136 133 94 108 123 101 60 65 45 68 96 110 130 125 132 136 133 136 132 132 134 136 138 140 142 139 141 145 145 141 138 138 134 132 127 126 126 127 126 119 122 126 121 116 112 111 110 110 109 110 108 102 108 111 108 110 110 106 104 103 104 103 102 102 100 98 95 91 90 90 92 92 92 91
142 167 167 171 226 348 286 49 64 130 117 116 122 129 177 106 106 106 98 109 127 136 135 141 125 60 55 95 53 33 71 68 98 105 128 141 129 136 136 134 134 128 129 132 135 135 137 145 142 149 153 148 145 141 134 129 127 122 122 122 123 122 118 126 129 120 116 114 112 112 111 111 112 107 103 108 109 106 108 109 106 107 107 107 106 105 104 103 103 99 93 91 91 93 92 91 91
148 181 174 194 289 61 340 85 94 114 111 127 131 134 112 105 117 113 110 125 136 141 138 143 114 91 76 60 18 64 76 90 115 118 130 135 132 135 136 134 131 125 129 131 134 132 138 146 148 161 155 145 142 132 128 128 124 119 119 118 116 114 115 124 122 114 118 117 111 113 112 112 112 107 107 110 109 107 107 107 106 109 108 108 109 105 104 104 103 100 95 92 91 93 93 93 91
141 152 162 208 298 147 312 111 130 102 80 106 129 120 118 122 123 116 118 123 131 139 129 120 112 115 98 65 48 56 67 117 126 136 135 136 137 136 135 135 131 128 133 135 136 134 143 150 154 162 144 139 135 127 135 132 123 120 120 118 114 110 115 124 124 123 127 124 117 115 115 115 111 107 108 110 111 109 108 108 109 109 108 109 107 103 104 101 100 100 94 90 92 93 94 91 88
175 152 157 214 140 141 74 103 113 101 80 299 134 125 133 133 128 122 127 126 129 139 115 109 119 114 93 86 79 53 45 109 124 138 138 137 138 138 138 139 134 132 136 139 141 139 146 151 150 144 132 131 125 134 147 138 125 119 115 112 112 110 119 130 130 129 129 128 125 121 119 117 113 108 108 111 112 111 111 109 109 108 108 107 103 103 103 99 98 96 92 92 94 94 93 89 86
223 229 252 212 114 81 105 104 89 72 89 303 78 121 138 139 136 132 135 133 137 144 128 129 131 104 79 76 92 57 60 98 117 126 131 135 139 141 143 143 137 135 138 141 143 141 144 144 141 136 138 131 136 166 152 145 135 121 116 112 113 113 122 136 131 131 132 130 128 123 123 121 115 110 109 111 110 111 112 109 108 108 109 107 104 104 102 99 96 93 96 100 96 93 91 87 86
234 268 241 186 120 112 112 101 98 70 83 118 101 116 133 139 135 131 132 123 129 132 126 138 144 105 98 87 90 75 78 102 115 122 131 136 141 146 147 148 139 137 138 138 141 143 145 141 145 146 147 144 150 177 155 155 141 124 125 120 121 120 127 138 130 134 137 134 131 125 128 126 118 113 112 112 112 115 116 113 111 109 110 108 107 107 103 98 94 98 105 101 92 90 89 86 83
234 263 238 200 138 122 117 105 112 93 91 112 112 126 136 143 123 118 123 120 125 121 112 107 92 113 111 90 86 88 103 116 121 126 134 138 144 147 148 149 141 138 136 133 138 141 138 137 143 141 139 144 137 146 159 153 132 122 125 128 130 127 135 139 130 136 135 132 134 131 133 128 120 117 116 116 117 122 122 120 118 115 114 110 109 108 102 96 99 107 104 95 89 86 86 85 81
293 71 286 187 142 132 128 119 115 107 115 117 117 127 132 139 117 107 112 114 117 117 124 115 106 115 104 89 89 100 118 126 126 130 138 141 144 144 144 145 143 139 135 135 139 134 132 132 128 130 127 136 138 133 139 132 127 117 114 133 141 131 137 137 128 136 135 131 136 136 137 130 122 117 117 117 117 121 121 120 119 116 114 109 105 101 97 99 106 106 96 93 90 87 86 83 81
333 11 297 154 129 131 128 120 120 119 131 140 145 146 132 147 129 122 122 118 123 123 124 133 134 126 103 99 106 117 127 128 128 133 138 139 140 142 141 142 145 141 137 137 137 130 131 130 123 132 124 120 131 122 118 115 114 105 108 136 147 133 137 136 128 136 137 137 142 139 135 125 114 106 105 110 112 117 120 118 116 114 112 107 101 98 99 102 102 96 92 90 87 88 87 85 82
6 347 299 133 91 103 122 119 126 127 146 156 152 139 131 140 125 127 125 120 128 128 108 114 139 125 98 108 117 130 132 128 131 133 135 136 137 139 140 141 144 137 134 135 134 129 123 125 129 138 131 121 114 111 115 110 102 100 112 138 144 134 136 138 134 138 138 142 146 134 122 113 111 104 96 103 109 117 122 120 118 116 113 110 107 103 100 96 93 91 90 88 87 87 86 86 83
6 330 327 115 112 118 119 127 144 143 154 156 137 127 119 85 90 113 122 119 105 105 107 110 125 109 110 125 134 144 139 136 135 133 134 134 134 135 135 138 138 131 126 126 122 118 113 118 130 130 126 120 115 114 105 100 100 107 124 139 136 132 132 140 142 141 137 138 139 120 108 107 116 113 106 105 106 112 117 117 117 114 108 107 106 101 97 94 91 88 86 88 87 86 85 85 82
340 275 344 113 129 133 131 135 147 148 152 153 143 127 99 77 103 90 97 112 93 107 119 112 102 108 140 152 151 150 142 142 139 134 134 131 131 129 131 133 131 127 120 117 106 100 100 109 125 119 114 112 123 126 109 100 101 111 132 139 135 132 136 149 145 138 132 130 126 117 117 116 115 114 114 111 105 107 112 112 111 106 104 102 100 97 97 95 92 89 86 87 86 85 86 84 81
7 264 4 126 145 151 160 146 146 148 150 145 141 124 99 97 108 64 22 109 118 126 120 106 23 86 141 138 136 142 141 143 141 136 133 130 131 127 130 132 127 123 113 112 100 89 89 98 111 109 108 110 118 123 114 103 102 112 128 131 131 133 142 152 144 138 132 124 118 118 127 125 115 113 115 112 107 106 103 103 102 100 101 100 99 99 95 91 88 86 83 82 83 85 86 84 79
214 266 71 142 161 161 159 160 159 143 131 137 152 142 119 118 95 78 97 107 121 117 76 75 61 99 121 120 130 138 140 141 140 138 135 135 137 136 139 141 133 124 112 106 94 86 83 88 91 96 99 102 111 117 111 101 104 114 119 124 136 139 143 148 144 139 130 121 118 121 127 124 118 115 111 108 108 105 96 93 96 95 95 95 96 97 95 92 88 83 79 78 81 83 83 82 72
268 324 120 167 161 151 144 133 131 124 137 150 165 152 136 137 125 124 114 97 110 105 88 84 82 95 108 119 131 136 140 142 144 145 145 148 150 151 151 151 144 132 126 113 96 93 89 83 77 87 94 97 106 110 108 105 108 116 120 131 143 141 140 146 147 141 134 125 122 128 128 121 115 112 108 107 105 101 98 94 94 93 95 97 95 92 92 93 90 85 81 78 78 79 76 69 55
334 14 115 174 133 105 67 78 74 122 145 146 160 155 143 143 138 147 136 122 128 114 108 105 101 106 115 125 135 139 143 147 152 155 155 159 161 161 158 155 149 139 136 120 102 95 84 79 73 83 92 97 102 103 104 106 110 115 122 134 142 136 131 138 146 142 138 129 124 127 124 119 113 108 107 107 104 100 99 99 96 93 94 95 89 83 81 82 82 79 80 78 74 66 56 44 30
356 331 1 68 56 80 79 95 51 67 140 141 148 153 142 143 146 151 137 136 149 140 138 133 127 132 134 135 141 145 149 152 156 159 160 163 163 163 162 158 152 143 138 125 111 98 78 78 81 85 90 96 102 103 104 106 109 111 116 125 135 131 122 129 139 141 136 127 125 125 122 120 113 106 107 108 108 108 108 106 101 94 89 87 81 78 75 74 73 72 74 72 59 44 32 20 9
13 305 356 41 40 119 119 120 35 62 139 140 139 141 140 143 150 147 138 139 170 178 166 152 145 144 145 145 146 149 152 153 157 160 162 163 163 163 161 155 147 142 138 129 118 105 89 85 90 91 90 94 100 104 107 109 110 112 115 119 127 129 123 125 133 138 132 125 126 126 124 119 111 109 110 108 108 112 111 103 98 92 84 82 80 77 74 72 70 67 62 51 36 24 13 2 354
153 187 338 7 126 94 86 120 48 101 127 128 141 147 144 139 147 154 148 140 178 183 173 152 147 147 147 149 148 151 153 155 159 162 165 166 165 163 155 149 143 144 141 131 122 112 100 96 99 98 95 98 102 106 110 112 112 114 118 123 130 130 126 124 130 135 129 125 127 127 125 119 114 114 110 106 107 107 103 97 94 90 84 81 79 76 74 73 67 58 47 34 21 11 359 348 343
221 195 218 243 191 102 72 111 40 107 130 133 148 142 137 140 144 160 140 43 19 149 146 139 141 143 144 146 149 153 155 159 162 165 169 168 167 164 155 151 149 149 140 128 122 116 107 105 105 101 100 103 106 108 112 115 116 117 121 128 134 135 131 128 131 132 128 129 130 128 126 121 119 114 109 108 109 107 103 98 94 89 83 80 80 77 71 67 60 47 35 22 11 3 353 344 339
238 233 201 222 219 188 145 121 22 88 120 120 141 133 141 150 147 166 94 31 123 134 131 134 137 140 141 144 150 154 157 161 162 164 166 168 170 164 155 151 151 150 138 129 125 121 116 114 111 106 107 108 110 110 113 117 118 120 125 128 132 135 133 130 130 130 130 132 131 131 128 119 113 109 110 112 111 109 104 98 91 84 78 76 78 73 67 64 53 40 31 19 8 4 357 350 347
224 237 203 218 242 218 193 155 89 80 95 100 133 122 116 134 136 152 106 88 132 131 130 134 137 141 145 148 150 153 157 159 158 160 163 168 168 163 158 153 153 153 144 137 133 128 127 126 121 116 117 115 115 115 116 118 119 122 125 128 130 131 130 129 129 130 131 132 132 130 122 112 109 109 113 113 110 106 99 92 83 76 71 72 69 60 61 60 48 39 35 24 16 15 9 4 5
211 228 225 228 246 218 188 157 112 80 66 95 124 104 82 112 130 136 113 129 137 133 134 138 143 146 151 153 152 155 159 161 161 163 165 167 168 169 167 161 159 159 150 144 142 137 137 137 129 127 127 122 121 121 120 120 121 122 122 125 128 128 128 129 130 130 131 131 128 123 117 113 111 109 112 110 105 99 92 85 79 72 65 66 61 50 53 51 45 40 33 26 20 20 15 8 6
149 132 64 16 269 199 174 139 116 78 30 35 118 106 100 139 172 157 147 152 144 139 140 144 150 151 156 158 156 160 163 166 167 166 167 167 173 178 175 170 165 160 154 150 148 144 143 142 139 138 135 128 126 126 125 124 123 122 120 122 125 127 129 129 130 130 130 129 126 123 121 118 114 114 114 108 102 96 89 84 79 72 61 61 60 50 49 47 42 35 27 22 19 19 14 6 1
123 120 88 59 45 107 138 124 132 259 33 7 110 108 104 147 241 157 150 160 152 146 146 151 156 155 160 162 160 163 167 171 172 174 174 172 177 180 179 176 168 162 160 156 151 149 147 145 145 144 142 138 134 131 130 128 126 124 122 124 127 129 130 131 133 133 131 132 132 131 129 124 121 120 116 110 105 98 92 86 77 70 62 61 59 51 46 43 35 26 20 17 15 14 9 1 359
131 130 106 82 62 56 86 117 132 281 97 326 44 121 125 158 234 126 148 159 152 148 150 156 159 159 163 166 165 166 170 175 179 184 182 176 176 178 179 177 169 163 161 157 154 152 150 148 149 148 149 146 141 138 135 132 131 130 127 130 133 133 135 136 136 137 137 139 139 138 135 130 126 122 118 115 110 101 97 91 77 65 63 59 53 47 43 38 30 23 16 14 11 8 4 358 358
141 126 111 107 94 56 24 95 114 57 79 329 313 172 171 159 127 141 154 156 153 154 158 160 162 166 168 171 171 171 176 181 187 190 184 177 174 176 178 177 173 165 158 159 159 157 154 153 153 153 155 152 148 145 141 138 138 137 135 136 140 141 141 141 142 142 142 142 143 141 137 133 128 124 122 118 111 104 95 88 75 61 62 57 48 43 40 34 27 21 14 13 9 5 2 355 355
135 122 121 131 132 108 23 95 155 148 32 335 322 183 175 137 125 154 163 161 159 161 164 165 167 171 173 176 177 176 182 188 193 191 185 180 174 175 176 176 177 171 162 162 162 161 159 158 157 158 160 157 156 153 149 146 143 143 141 140 144 146 146 147 146 144 143 142 141 140 138 135 131 127 123 117 110 104 91 77 67 61 63 54 44 43 43 35 26 17 10 11 9 5 360 353 352
130 139 129 131 136 114 51 107 183 192 83 342 321 150 146 137 146 161 169 167 165 166 169 170 171 175 177 180 183 184 187 189 193 194 188 183 177 174 174 175 178 177 171 165 162 162 162 163 162 161 163 163 164 162 157 151 146 144 142 141 144 145 147 148 146 144 143 141 140 141 139 136 132 126 118 113 108 100 87 65 57 60 62 54 45 43 40 32 24 16 9 9 7 3 358 352 351
302 287 123 132 138 136 116 129 224 191 124 16 347 144 137 140 156 164 172 172 168 167 171 174 175 178 181 184 189 190 187 184 190 196 190 187 183 176 174 175 178 179 178 171 165 164 164 167 167 166 168 170 171 169 164 156 149 145 141 143 144 144 144 145 145 143 143 143 144 145 143 138 131 123 115 112 108 95 71 54 48 54 62 56 44 37 29 23 19 14 10 7 3 0 356 352 351
185 135 135 145 140 154 153 142 177 170 159 116 43 129 126 142 160 165 176 176 173 173 173 177 178 180 185 189 194 195 191 189 192 195 192 189 186 180 175 176 177 178 181 179 173 169 166 167 170 172 173 175 176 174 169 162 156 150 146 147 146 145 146 147 146 143 145 149 151 153 149 144 139 132 123 107 93 85 78 74 64 60 64 57 43 33 23 21 22 15 9 2 356 353 352 348 349
222 161 154 148 143 164 159 140 162 171 168 138 121 134 112 146 162 168 179 181 182 181 174 176 179 182 188 192 198 200 199 200 198 194 191 189 185 181 178 176 177 178 181 183 180 176 172 170 173 179 180 180 181 179 173 165 162 157 155 154 152 152 152 152 151 149 153 156 159 163 158 153 151 143 123 98 84 81 83 84 70 59 59 46 32 24 18 23 27 17 3 356 353 345 342 344 345
188 141 136 147 141 147 139 126 160 172 156 140 147 135 124 160 171 175 181 185 190 184 173 175 180 183 190 197 203 206 207 209 203 191 187 187 185 181 178 177 178 178 179 183 184 183 181 177 177 182 185 186 186 184 178 173 170 167 165 164 163 163 162 158 157 157 158 161 166 167 163 160 154 140 115 94 88 89 84 73 56 43 42 30 21 16 18 24 22 13 359 354 358 343 336 344 344
128 122 121 140 138 126 122 130 138 153 169 166 153 121 141 174 183 186 182 186 194 188 180 181 182 186 192 200 205 209 215 212 192 185 186 185 183 180 178 177 178 179 180 184 186 187 186 184 183 184 187 189 190 190 187 182 178 175 173 173 170 170 170 167 165 166 164 167 172 166 162 160 152 137 98 77 76 87 77 60 41 29 28 23 23 22 23 27 17 6 358 355 359 355 342 342 345
122 126 131 131 140 130 103 132 137 359 314 160 146 148 166 178 185 188 182 189 198 194 191 189 188 191 194 202 208 212 217 210 179 179 182 182 182 180 179 180 180 182 184 187 188 188 188 187 186 188 190 192 193 195 194 192 187 181 177 176 173 173 177 175 173 176 174 176 179 171 166 166 160 146 57 34 34 51 52 37 19 19 23 21 28 29 25 23 12 5 3 358 353 356 350 347 352
105 113 145 145 136 129 94 133 136 9 327 149 166 197 187 172 176 188 191 199 205 202 200 196 191 192 196 203 209 212 213 210 194 184 182 183 181 180 182 183 184 185 187 189 189 189 189 189 191 194 195 195 196 198 198 196 192 185 182 180 176 176 185 188 186 187 187 188 191 187 184 183 186 216 304 336 349 353 358 4 1 8 6 3 9 13 14 3 358 3 4 0 352 346 348 356 1
223 155 178 151 158 170 141 164 153 52 20 130 174 207 224 180 182 202 206 207 210 211 212 209 200 199 203 205 207 209 209 209 200 190 185 184 180 182 185 184 183 185 187 190 191 190 192 194 197 199 198 198 198 199 199 199 196 192 192 192 188 191 199 202 202 203 205 206 207 210 209 210 222 246 273 296 315 323 335 346 332 330 333 335 338 350 2 349 351 359 358 1 0 350 351 3 13
249 238 250 184 173 196 84 138 157 98 69 143 162 200 247 205 201 207 198 195 211 215 217 218 215 213 211 209 208 208 210 208 201 194 186 183 183 185 187 184 183 186 189 192 193 193 194 196 199 200 200 200 199 199 200 201 202 203 203 203 201 203 206 207 209 213 215 215 217 220 225 234 242 249 257 259 271 293 311 316 313 309 312 319 323 333 348 343 345 353 355 5 8 359 356 2 21
264 231 242 238 192 169 121 135 154 187 207 191 188 229 244 191 203 208 184 188 209 208 216 220 218 215 210 211 212 209 210 208 204 198 187 186 188 186 184 184 187 190 193 195 195 196 196 196 197 198 199 200 200 200 201 202 205 207 207 203 198 199 201 204 206 207 209 212 215 216 225 238 245 248 245 240 246 264 284 295 298 297 298 306 312 320 332 338 343 347 349 2 8 5 5 3 19
268 286 265 241 197 153 140 152 164 211 219 176 210 246 264 191 208 208 188 195 209 202 216 224 220 214 208 208 210 206 205 203 203 202 193 190 188 184 184 188 192 195 193 192 194 196 198 198 199 197 197 199 199 200 201 202 205 208 208 204 201 199 200 206 207 206 211 217 221 225 232 243 249 247 237 235 240 252 271 280 279 285 287 290 295 306 317 329 341 340 340 357 5 7 14 13 6
269 307 290 227 178 149 147 162 170 221 326 124 203 233 273 270 229 198 188 195 212 213 217 222 221 219 214 210 208 205 202 197 196 200 197 193 189 188 190 192 195 195 191 190 192 195 199 202 202 199 197 197 197 199 200 202 205 207 209 209 211 210 210 217 219 221 227 229 233 237 241 248 254 252 241 239 242 249 264 269 268 269 268 274 279 290 307 324 337 337 333 344 349 352 5 13 8
64 47 33 133 137 139 143 159 155 143 243 226 193 188 247 263 234 175 188 195 214 220 216 217 218 219 217 213 210 205 201 194 194 197 198 196 193 193 194 193 194 193 189 190 191 194 199 204 205 202 200 199 197 198 201 203 206 208 212 214 218 220 223 231 233 237 239 236 239 242 244 247 253 256 252 249 246 248 255 257 258 258 257 264 264 271 290 306 326 333 324 327 341 340 343 0 10
101 105 99 96 106 114 118 132 103 91 268 256 193 187 225 265 215 162 186 202 218 221 213 211 215 217 217 216 212 205 197 193 197 198 197 198 198 197 195 191 191 191 190 190 190 192 197 203 206 206 204 202 199 199 201 204 207 210 216 221 224 227 231 236 239 243 243 240 242 244 246 247 250 255 258 256 250 246 244 241 249 257 256 255 248 254 266 278 299 308 286 289 325 333 328 344 354
146 114 103 98 95 88 76 56 59 80 264 263 187 188 207 272 242 168 184 207 224 223 212 201 204 211 213 214 213 206 195 191 196 199 198 200 200 196 193 190 189 190 188 187 188 190 194 200 206 208 207 205 203 202 202 205 209 214 220 225 229 232 235 239 240 241 242 244 245 246 248 247 248 252 256 257 252 246 237 232 243 254 254 255 252 251 251 254 264 269 256 252 278 300 293 313 322
161 142 131 119 95 93 89 68 79 225 236 5 176 189 197 237 250 170 211 255 271 245 218 196 196 203 205 206 209 204 197 193 192 196 197 195 191 188 190 190 188 187 186 187 189 191 192 197 204 208 209 208 206 204 205 207 211 217 221 226 230 233 237 240 241 241 243 244 243 244 247 247 247 249 251 253 252 246 236 233 242 251 252 256 253 247 244 243 246 256 256 243 250 264 263 276 277
174 176 164 164 143 164 185 186 219 230 207 59 163 186 197 239 266 326 298 289 285 265 239 205 194 200 201 200 203 198 194 195 192 193 192 185 183 185 188 189 186 187 190 189 190 191 192 197 202 206 209 210 208 207 208 209 213 218 222 225 227 230 235 240 242 243 244 244 242 242 244 243 243 245 245 246 247 243 238 238 243 249 254 257 253 246 242 242 245 254 257 248 249 256 259 269 271
186 179 180 198 178 173 202 201 227 244 177 89 156 181 217 252 262 358 346 327 311 289 257 215 189 195 200 195 197 193 189 195 194 192 188 182 183 187 189 188 188 192 194 192 190 190 192 195 201 205 209 211 210 210 211 212 214 217 220 223 225 226 229 234 238 239 240 244 245 243 243 240 237 238 238 242 246 242 238 240 244 251 257 260 259 251 244 242 244 247 251 249 249 253 260 269 271
178 169 220 235 202 202 216 201 211 182 121 117 149 178 240 253 126 68 13 354 348 334 291 223 189 190 195 190 190 187 187 193 194 191 189 185 184 186 187 188 190 194 195 194 192 190 191 195 201 206 209 211 212 212 213 215 215 216 219 222 224 224 225 230 235 238 241 246 248 247 248 245 239 238 240 246 252 247 241 242 246 253 259 262 264 258 249 245 246 249 253 253 251 255 261 264 263
117 39 300 264 245 229 42 93 147 115 118 144 170 212 281 220 141 85 11 3 7 3 346 239 196 190 190 189 185 182 187 193 192 192 191 187 185 185 187 189 192 193 193 194 193 193 195 198 204 209 211 212 214 214 215 216 216 217 218 221 223 224 226 228 234 239 242 248 250 249 252 252 248 247 250 253 255 250 246 244 247 254 259 264 267 264 257 251 252 258 260 260 258 259 265 264 260
122 137 241 249 322 266 128 80 82 138 206 176 183 234 273 202 181 38 6 3 5 3 360 335 205 190 189 189 181 176 186 190 191 191 187 184 185 186 188 190 191 191 193 195 195 198 202 204 206 209 210 212 214 216 217 217 217 218 220 221 223 225 226 227 230 234 239 245 250 250 251 252 252 253 255 257 257 254 250 247 248 252 257 263 267 267 264 257 258 265 267 267 264 263 270 266 259
143 178 208 174 2 263 212 157 146 198 233 184 185 235 278 278 218 9 359 354 353 351 350 344 235 189 190 191 184 181 184 186 191 191 183 179 182 185 189 191 193 193 194 196 199 201 205 207 207 207 207 210 214 216 216 217 218 219 221 223 224 225 225 225 225 230 235 241 246 248 247 247 248 252 255 257 258 256 253 249 248 251 255 261 264 266 265 259 258 264 268 269 267 269 274 268 263
147 164 173 160 216 222 215 204 186 198 235 218 183 225 291 314 321 348 347 343 341 338 336 330 267 196 197 197 188 179 180 189 192 191 186 179 181 185 188 191 195 195 195 198 199 199 201 205 205 206 209 212 214 213 214 218 220 220 221 225 227 227 225 224 224 229 235 238 239 242 244 243 244 249 255 257 256 254 252 250 248 251 254 257 261 265 264 258 256 258 262 263 264 271 275 270 265
86 123 148 155 240 222 248 246 209 208 221 220 190 196 150 102 332 331 330 331 332 330 326 319 287 221 206 203 191 177 182 197 194 191 189 185 187 189 190 192 193 194 195 195 195 196 199 202 202 205 209 210 210 209 212 218 220 220 223 226 228 229 228 225 226 230 232 233 234 236 237 237 239 245 251 254 253 251 251 249 246 247 248 250 255 258 257 257 256 257 260 259 259 269 273 269 265
148 168 171 183 196 224 253 227 265 258 218 202 240 228 112 76 346 318 318 328 332 329 322 314 295 248 213 208 199 183 186 193 190 191 190 188 191 193 194 194 192 192 192 192 192 194 196 198 201 204 205 205 207 208 211 218 220 220 223 226 228 230 229 225 225 228 230 229 231 233 232 233 238 243 246 247 249 249 251 250 247 246 246 247 252 255 255 256 259 262 263 261 261 267 271 268 264
72 159 181 200 188 197 228 212 188 263 264 257 261 261 97 61 337 316 322 332 336 333 328 328 327 292 210 200 202 187 191 195 192 193 191 188 190 191 193 192 189 191 193 192 194 194 195 199 202 204 203 205 209 208 211 217 220 221 224 225 225 226 227 225 222 223 226 226 228 230 232 233 236 241 241 240 241 242 244 246 244 245 247 248 252 256 253 251 256 260 259 254 252 258 263 263 262